Location: Avenches
(46.8809°N, 7.0410°E)
Time: 06:08:37
(UTC+00:00)

CZ-4C R/B - Pass Details

Date: 30 March 2020
Orbit: 637 x 1365 km, 63.4° (Epoch: 29 May)

Event Time Altitude Azimuth Distance (km) Brightness Sun altitude
Rises 22:28:59 0° 319° (NW) 3,670 6.4 -36.8°
Reaches altitude 10° 22:31:39 10° 328° (NNW) 2,831 5.6 -36.9°
Maximum altitude 22:37:54 36° 34° (NE) 1,745 3.9 -37.3°
Enters shadow 22:38:43 35° 48° (NE) 1,793 3.9 -37.3°
